When you browse on this site, cookies collect data to enhance your experience and personalize the content and advertising you see.
Visit our Privacy Policy to learn more. By continuing to use the site, you agree to this use of cookies and data.
  • En España
  • Lista de países
  • Para 7 días
  • Temperatura del agua
  • Mapa Satelital
  • El tiempo en el mapa
  • Informadores
  • user-avatar
    Iniciar sesión

    Tiempo cada hora Oruro

    Hoy, 20 Noviembre, Martes

    Tiempo Temperatura Precipitaciones Viento Presión Humedad
    00:00 +10°C° 0 mm 3 mps 477 mmHg 66%
    01:00 +9°C° 0 mm 3 mps 476 mmHg 67%
    02:00 +9°C° 0 mm 2 mps 476 mmHg 68%
    03:00 +9°C° 0 mm 2 mps 476 mmHg 69%
    04:00 +8°C° 0 mm 2 mps 476 mmHg 71%
    05:00 +8°C° 0 mm 2 mps 475 mmHg 72%
    06:00 +9°C° 0 mm 2 mps 476 mmHg 67%
    07:00 +10°C° 0 mm 2 mps 477 mmHg 62%
    08:00 +12°C° 0 mm 2 mps 477 mmHg 56%
    09:00 +13°C° 0 mm 2 mps 478 mmHg 50%
    10:00 +15°C° 0 mm 2 mps 479 mmHg 43%
    11:00 +16°C° 0 mm 1 mps 480 mmHg 37%
    12:00 +17°C° 0.1 mm 2 mps 480 mmHg 34%
    13:00 +18°C° 0.1 mm 2 mps 480 mmHg 31%
    14:00 +19°C° 0.1 mm 2 mps 480 mmHg 29%
    15:00 +19°C° 0.2 mm 3 mps 479 mmHg 30%
    16:00 +18°C° 0.2 mm 4 mps 479 mmHg 32%
    17:00 +17°C° 0.2 mm 5 mps 478 mmHg 33%
    18:00 +16°C° 0.1 mm 6 mps 478 mmHg 39%
    19:00 +14°C° 0.1 mm 7 mps 478 mmHg 45%
    20:00 +12°C° 0.1 mm 7 mps 477 mmHg 51%
    21:00 +11°C° 0.1 mm 7 mps 477 mmHg 56%
    22:00 +10°C° 0.1 mm 7 mps 477 mmHg 60%
    23:00 +10°C° 0.1 mm 7 mps 477 mmHg 64%

    Mañana, 21 Noviembre, Miércoles

    Tiempo Temperatura Precipitaciones Viento Presión Humedad
    00:00 +9°C° 0 mm 5 mps 477 mmHg 65%
    01:00 +10°C° 0 mm 4 mps 476 mmHg 67%
    02:00 +9°C° 0 mm 3 mps 476 mmHg 69%
    03:00 +9°C° 0 mm 3 mps 476 mmHg 69%
    04:00 +9°C° 0 mm 3 mps 476 mmHg 70%
    05:00 +9°C° 0 mm 2 mps 476 mmHg 70%
    06:00 +9°C° 0 mm 2 mps 477 mmHg 66%
    07:00 +10°C° 0 mm 2 mps 477 mmHg 62%
    08:00 +11°C° 0 mm 3 mps 478 mmHg 57%
    09:00 +14°C° 0 mm 2 mps 479 mmHg 51%
    10:00 +15°C° 0 mm 2 mps 480 mmHg 44%
    11:00 +16°C° 0 mm 2 mps 480 mmHg 37%
    12:00 +17°C° 0 mm 2 mps 480 mmHg 36%
    13:00 +18°C° 0 mm 2 mps 480 mmHg 34%
    14:00 +19°C° 0 mm 2 mps 479 mmHg 32%
    15:00 +18°C° 0.2 mm 3 mps 479 mmHg 33%
    16:00 +18°C° 0.2 mm 3 mps 478 mmHg 34%
    17:00 +18°C° 0.2 mm 4 mps 478 mmHg 35%
    18:00 +16°C° 0.1 mm 5 mps 478 mmHg 41%
    19:00 +14°C° 0.1 mm 6 mps 477 mmHg 47%
    20:00 +12°C° 0.1 mm 7 mps 477 mmHg 53%
    21:00 +11°C° 0.4 mm 7 mps 477 mmHg 57%
    22:00 +10°C° 0.4 mm 6 mps 477 mmHg 62%
    23:00 +10°C° 0.4 mm 5 mps 477 mmHg 66%

    Pasado mañana, 22 Noviembre, Jueves

    Tiempo Temperatura Precipitaciones Viento Presión Humedad
    00:00 +10°C° 0.9 mm 4 mps 476 mmHg 67%
    01:00 +10°C° 0.9 mm 3 mps 476 mmHg 68%
    02:00 +10°C° 0.9 mm 2 mps 476 mmHg 69%
    03:00 +10°C° 0.3 mm 2 mps 476 mmHg 69%
    04:00 +11°C° 0.3 mm 1 mps 476 mmHg 68%
    05:00 +11°C° 0.3 mm 1 mps 476 mmHg 68%
    06:00 +11°C° 0 mm 1 mps 476 mmHg 65%
    07:00 +12°C° 0 mm 2 mps 477 mmHg 61%
    08:00 +12°C° 0 mm 2 mps 477 mmHg 58%
    09:00 +14°C° 0 mm 2 mps 478 mmHg 52%
    10:00 +15°C° 0 mm 2 mps 478 mmHg 45%
    11:00 +16°C° 0 mm 1 mps 479 mmHg 39%
    12:00 +18°C° 0.2 mm 1 mps 479 mmHg 36%
    13:00 +19°C° 0.2 mm 1 mps 478 mmHg 34%
    14:00 +20°C° 0.2 mm 1 mps 478 mmHg 32%
    15:00 +19°C° 0.5 mm 2 mps 478 mmHg 33%
    16:00 +18°C° 0.5 mm 3 mps 477 mmHg 34%
    17:00 +18°C° 0.5 mm 3 mps 477 mmHg 35%
    18:00 +17°C° 0.5 mm 4 mps 477 mmHg 40%
    19:00 +15°C° 0.5 mm 4 mps 476 mmHg 45%
    20:00 +14°C° 0.5 mm 5 mps 476 mmHg 49%
    21:00 +13°C° 0.2 mm 5 mps 476 mmHg 52%
    22:00 +13°C° 0.2 mm 4 mps 477 mmHg 55%
    23:00 +12°C° 0.2 mm 4 mps 477 mmHg 57%

    23 Noviembre, Viernes

    Tiempo Temperatura Precipitaciones Viento Presión Humedad
    00:00 +12°C° 0 mm 3 mps 476 mmHg 60%
    01:00 +11°C° 0 mm 3 mps 475 mmHg 62%
    02:00 +12°C° 0 mm 2 mps 475 mmHg 64%
    03:00 +10°C° 0 mm 2 mps 475 mmHg 64%
    04:00 +10°C° 0 mm 2 mps 475 mmHg 64%
    05:00 +11°C° 0 mm 1 mps 474 mmHg 65%
    06:00 +11°C° 0 mm 1 mps 475 mmHg 58%
    07:00 +12°C° 0 mm 2 mps 476 mmHg 51%
    08:00 +13°C° 0 mm 2 mps 477 mmHg 44%
    09:00 +14°C° 0 mm 1 mps 477 mmHg 40%
    10:00 +15°C° 0 mm 1 mps 478 mmHg 37%
    11:00 +18°C° 0 mm 1 mps 478 mmHg 33%
    12:00 +18°C° 0 mm 1 mps 478 mmHg 31%
    13:00 +18°C° 0 mm 2 mps 478 mmHg 28%
    14:00 +19°C° 0 mm 2 mps 478 mmHg 25%
    15:00 +19°C° 0.4 mm 3 mps 478 mmHg 28%
    16:00 +19°C° 0.4 mm 4 mps 477 mmHg 30%
    17:00 +17°C° 0.4 mm 5 mps 477 mmHg 33%
    18:00 +16°C° 0.3 mm 6 mps 476 mmHg 41%
    19:00 +14°C° 0.3 mm 6 mps 476 mmHg 49%
    20:00 +12°C° 0.3 mm 7 mps 476 mmHg 58%
    21:00 +11°C° 0 mm 7 mps 476 mmHg 61%
    22:00 +10°C° 0 mm 7 mps 476 mmHg 65%
    23:00 +10°C° 0 mm 6 mps 476 mmHg 68%

    24 Noviembre, Sábado

    Tiempo Temperatura Precipitaciones Viento Presión Humedad
    00:00 +10°C° 0 mm 5 mps 476 mmHg 68%
    01:00 +9°C° 0 mm 5 mps 475 mmHg 68%
    02:00 +10°C° 0 mm 4 mps 475 mmHg 67%
    03:00 +10°C° 0 mm 3 mps 475 mmHg 68%
    04:00 +10°C° 0 mm 3 mps 475 mmHg 69%
    05:00 +9°C° 0 mm 2 mps 475 mmHg 69%
    06:00 +10°C° 0 mm 3 mps 475 mmHg 67%
    07:00 +10°C° 0 mm 3 mps 476 mmHg 65%
    08:00 +11°C° 0 mm 3 mps 477 mmHg 62%
    09:00 +12°C° 0 mm 3 mps 477 mmHg 57%
    10:00 +13°C° 0 mm 3 mps 478 mmHg 52%
    11:00 +14°C° 0 mm 3 mps 478 mmHg 47%
    12:00 +14°C° 0 mm 4 mps 478 mmHg 46%
    13:00 +15°C° 0 mm 4 mps 478 mmHg 44%
    14:00 +15°C° 0 mm 4 mps 478 mmHg 43%
    15:00 +15°C° 0 mm 5 mps 477 mmHg 44%
    16:00 +15°C° 0 mm 5 mps 476 mmHg 46%
    17:00 +14°C° 0 mm 6 mps 476 mmHg 48%
    18:00 +13°C° 0 mm 6 mps 476 mmHg 52%
    19:00 +11°C° 0 mm 6 mps 475 mmHg 56%
    20:00 +10°C° 0 mm 6 mps 475 mmHg 60%
    21:00 +9°C° 0 mm 6 mps 475 mmHg 62%
    22:00 +9°C° 0 mm 5 mps 475 mmHg 64%
    23:00 +8°C° 0 mm 5 mps 476 mmHg 66%

    25 Noviembre, Domingo

    Tiempo Temperatura Precipitaciones Viento Presión Humedad
    00:00 +8°C° 0 mm 5 mps 475 mmHg 67%
    01:00 +8°C° 0 mm 4 mps 475 mmHg 68%
    02:00 +8°C° 0 mm 4 mps 474 mmHg 69%
    03:00 +9°C° 0 mm 3 mps 474 mmHg 70%
    04:00 +9°C° 0 mm 3 mps 474 mmHg 70%
    05:00 +8°C° 0 mm 2 mps 474 mmHg 70%
    06:00 +9°C° 0 mm 2 mps 475 mmHg 68%
    07:00 +9°C° 0 mm 2 mps 476 mmHg 66%
    08:00 +10°C° 0 mm 2 mps 476 mmHg 65%
    09:00 +11°C° 0 mm 3 mps 477 mmHg 60%
    10:00 +12°C° 0 mm 3 mps 477 mmHg 55%
    11:00 +13°C° 0 mm 3 mps 478 mmHg 50%
    12:00 +14°C° 0.1 mm 4 mps 478 mmHg 48%
    13:00 +15°C° 0.1 mm 4 mps 477 mmHg 46%
    14:00 +15°C° 0.1 mm 5 mps 477 mmHg 43%
    15:00 +15°C° 0.1 mm 5 mps 477 mmHg 45%
    16:00 +15°C° 0.1 mm 6 mps 477 mmHg 46%
    17:00 +15°C° 0.1 mm 6 mps 476 mmHg 47%
    18:00 +14°C° 0.1 mm 6 mps 476 mmHg 52%
    19:00 +11°C° 0.1 mm 6 mps 476 mmHg 57%
    20:00 +10°C° 0.1 mm 7 mps 475 mmHg 63%
    21:00 +10°C° 0 mm 6 mps 475 mmHg 64%
    22:00 +9°C° 0 mm 5 mps 475 mmHg 66%
    23:00 +10°C° 0 mm 4 mps 476 mmHg 68%
    Mostrar más